This is the latest recevied weather packets stored in our database for station/object NK7I. If no packets are shown the sender has not sent any weather packets the latest 10 day(s).
| Time | Temp. | Humidity | Pressure | Rain* | Wind** | Luminosity | Snow |
|---|---|---|---|---|---|---|---|
| 1777840282 | 23.33° C | 33% | 1010.3 hPa | 0 mm | - | 1234 W/m² | - |
| 1777839982 | 22.78° C | 39% | 1010.4 hPa | 0 mm | - | 1234 W/m² | - |
| 1777839682 | 22.78° C | 35% | 1010.5 hPa | 0 mm | - | 1225 W/m² | - |
| 1777839382 | 22.78° C | 34% | 1010.6 hPa | 0 mm | - | 1232 W/m² | - |
| 1777839082 | 22.78° C | 41% | 1010.7 hPa | 0 mm | - | 1238 W/m² | - |
| 1777838783 | 22.22° C | 35% | 1010.8 hPa | 0 mm | - | 1250 W/m² | - |
| 1777838482 | 21.67° C | 37% | 1010.9 hPa | 0 mm | - | 1252 W/m² | - |
| 1777838182 | 21.67° C | 38% | 1011.1 hPa | 0 mm | - | 1269 W/m² | - |
| 1777837883 | 21.11° C | 36% | 1011.2 hPa | 0 mm | - | 1267 W/m² | - |
| 1777837582 | 21.11° C | 37% | 1011.4 hPa | 0 mm | - | 1273 W/m² | - |
| 1777837282 | 21.11° C | 38% | 1011.5 hPa | 0 mm | - | 1283 W/m² | - |
| 1777836982 | 21.11° C | 38% | 1011.7 hPa | 0 mm | - | 1283 W/m² | - |
| 1777836682 | 21.11° C | 40% | 1011.8 hPa | 0 mm | - | 1283 W/m² | - |
| 1777836383 | 20.56° C | 44% | 1012 hPa | 0 mm | - | 1276 W/m² | - |
| 1777836083 | 20.56° C | 40% | 1012.1 hPa | 0 mm | - | 1281 W/m² | - |
| 1777835782 | 20° C | 37% | 1012.2 hPa | 0 mm | - | 1280 W/m² | - |
| 1777835482 | 20° C | 42% | 1012.4 hPa | 0 mm | - | 1274 W/m² | - |
| 1777835182 | 19.44° C | 38% | 1012.5 hPa | 0 mm | - | 1266 W/m² | - |
| 1777834882 | 19.44° C | 40% | 1012.5 hPa | 0 mm | - | 1271 W/m² | - |
| 1777834583 | 19.44° C | 48% | 1012.7 hPa | 0 mm | - | 1255 W/m² | - |
| 1777834282 | 19.44° C | 44% | 1012.7 hPa | 0 mm | - | 1255 W/m² | - |
| 1777833982 | 19.44° C | 44% | 1012.9 hPa | 0 mm | - | 1245 W/m² | - |
| 1777833683 | 19.44° C | 44% | 1012.9 hPa | 0 mm | - | 1252 W/m² | - |
| 1777833382 | 19.44° C | 46% | 1012.9 hPa | 0 mm | - | 1248 W/m² | - |
| 1777833082 | 19.44° C | 46% | 1013 hPa | 0 mm | - | 1245 W/m² | - |
* Rain latest hour (hover to see other rain measurements)
** Current wind speed in m/s (hover to see current wind gust speed)